Other Public Products
Issued by NWS Charleston, SC

Current Version | Previous Version | Graphics & Text | Print | Product List | Glossary On
Versions: 1 2 3 4 5 6 7 8 9 10 11 12 13 14 15 16 17 18 19 20 21 22 23 24 25 26 27 28 29 30 31 32 33 34 35 36 37 38 39 40 41 42 43 44 45 46 47 48 49 50
000
FPUS82 KCHS 200912
OPUCHS

TEST...KCHS/KSAV Gateway Observations...TEST
National Weather Service Charleston SC
500 AM EDT FRI OCT 20 2017

NOTE: "fair" indicates few or no clouds below 12,000 feet with no
significant weather and/or obstructions to visibility.

SCZ050-WAZ558-NCZ071-TXZ119-213-PAZ071-DCZ001-FLZ074-172-MI076-
NYZ176-178-MAZ016-IL014-TNZ027-NJZ106-GAZ044-MD014-201000-

...Gateway Observations for Charleston International...

CITY           SKY/WX    TMP DP  RH WIND       PRES   REMARKS
Chas Airport   FAIR      56  55  97 CALM      30.20S
Seattle        CLOUDY    49  46  90 S13       29.52F
Charlotte      FAIR      45  45 100 CALM      30.23S
Dallas DFW     MOCLDY    65  57  75 SE6       30.07F
Dallas Love    MOCLDY    67  57  70 SE10      30.08F
Philladelphia  FAIR      55  48  77 W5        30.14R
Wash National  FAIR      56  54  93 S5        30.18R
Baltimore      FAIR      51  47  86 W7        30.16R
Miami          FAIR      80  74  81 NE6       30.00S
Detroit        FAIR      48  35  60 CALM      30.23R
Newark         FAIR      56  47  71 W7        30.10R
Laguardia      FAIR      63  47  55 W13       30.08R
J F K          FAIR      58  48  69 W6        30.10R
Boston Logan   NOT AVBL
Ft. Lauderdale FAIR      80  75  84 E8        30.00R
Chicago O`Hare FAIR      53  43  68 CALM      30.14S
Chicago Midway FAIR      55  45  68 S6        30.15S
Houston Bush   MOCLDY    69  65  86 NE6       30.03F
Houston Hobby  TSTM      74  68  81 NE7       30.02F
Nashville      FAIR      48  45  89 CALM      30.26S
Atlanta        FAIR      50  46  86 N3        30.25S

$$

GAZ044-118-TXZ119-213-NCZ071-DCZ001-MDZ014-506-PAZ021-071-NJZ106-
NYZ176-178-MAZ106-OHZ011-021-055-MIZ076-KYZ091-ILZ014-INZ047-
MNZ060-ONZ431-201000-

...Gateway Observations for Savannah International...

CITY           SKY/WX    TMP DP  RH WIND       PRES   REMARKS
Savannah Arpt  FAIR      55  54  96 N3        30.20F
Atlanta        FAIR      50  46  86 N3        30.25S
Charlotte      FAIR      45  45 100 CALM      30.23S
Dallas DFW     MOCLDY    65  57  75 SE6       30.07F
Houston Bush   MOCLDY    69  65  86 NE6       30.03F
Wash National  FAIR      56  54  93 S5        30.18R
Wash Dulles    FAIR      46  45  96 CALM      30.18S
Baltimore      FAIR      51  47  86 W7        30.16R
Philadelphia   FAIR      55  48  77 W5        30.14R
Newark         FAIR      56  47  71 W7        30.10R
Laguardia      FAIR      63  47  55 W13       30.08R
J F K          FAIR      58  48  69 W6        30.10R
Boston         NOT AVBL
Pittsburg      FAIR      51  47  86 W5        30.21R
Akron          FAIR      49  44  83 NW8       30.23R
Cleveland      FAIR      50  45  83 CALM      30.25R
Cincinnati     FAIR      49  49 100 CALM      30.25R
Columbus       FAIR      47  48 100 CALM      30.24S
Detroit        FAIR      48  35  60 CALM      30.23R
Chicago O`Hare FAIR      53  43  68 CALM      30.14S
Minneapolis    FAIR      55  50  83 SE6       29.90F
Indianapolis   FAIR      53  50  89 CALM      30.23S
Toronto Canada CLEAR     50  36  57 NW6       30.15R

$$




USA.gov is the U.S. government's official web portal to all federal, state and local government web resources and services.